STARLINK-4401, 53483

Orbit data source: Space-Track

STARLINK-4401, 53483 is a payload satellite owned by SpaceX/Seattle (US) in SSO that was launched on Fri, 12 Aug 2022 UTC via an FALCON 9 launch vehicle from the Air Force Western Test Range (AFWTR). Payload-class satellites include a variety of spacecraft equipped with specific instruments for various scientific and technological missions. These include communications satellites like Starlink; space stations such as the ISS; scientific satellites like the Hubble; Earth observation satellites from companies like Planet Labs, Umbra, and HawkEye 360; GPS; miniature CubeSats for education and research; and military/defense satellites.

Not visible in the next 10 days
Identifier
53483, 2022-099U
Orbit
SSO
Country
Flag of USUS
Related business
Manufacturer
SpaceX/Seattle
Mission
Partially operational Commercial Communications
Bus & Motor
STARLINK, Unknown motor
Mass
300 kg wet, ~275 kg dry
Launch date (UTC)
2022-08-12 (3 years ago)
Launch vehicle
FALCON 9
Launch site
Air Force Western Test Range (AFWTR)
Object type
Payload
Rocket body
Debris
Shape & HBR
Box + 1 Pan, 4.4 m
Radar Cross Section
13.562 m², Large (>1 m²)

Expand to show TLE details & history
Last TLE update: 8 hours ago

TLE from 8 hours ago
0 STARLINK-4401
1 53483U 22099U   25259.25002315  .00642406  16624-3  20240-2 0  9990
2 53483  97.6552  27.5409 0001471  80.6348  25.0714 15.91345219  6014
Epoch: 2025-09-16T06:00Z
TLE epoch observation values (Epoch: 2025-09-16T06:00:02Z)
Latitude
72.63821°
Longitude
147.39706°
Altitude
310.14 km
Speed
7.729 km/s
True Right ascension
15h 31m 23s
True Declination
72° 32' 00"
Sunlit
Object was in daylight at epoch
Visualization orbit readout
Latitude
Unknown
Longitude
Unknown
Altitude
Unknown
Speed
Unknown
Apparent Right ascension
Unknown
Apparent Declination
Unknown
Sunlit
N/A
Visualization observer readout
Local Sidereal Time
06:20:09
Azimuth
Unknown
Elevation
Unknown
Doppler factor
Unknown
Orbital elements
Apogee altitude
296.382 km
Perigee altitude
294.418 km
Semi-major axis
6,673.537 km
Eccentricity
0.00015
Inclination
97.6552°
RAAN
27.5409°
Arg. of periapsis
80.6348°
True anomaly
25.07854°
Mean anomaly
25.0714°
Eccentric anomaly
25.07497°
Mean motion
3.98115 °/min
Orbital period
90.43 mins
BSTAR
0.002024
Loading maneuver chart data...
Computing Atmospheric mass density...
Loading historical data...
Loading historical data...
Loading historical data...
Loading historical data...
Loading historical data...
Loading historical data...
Loading historical data...

Documentation

Showing up to 5 results
|